Location: Unspecified
(0.0000°N, 0.0000°E)
Time: 04:38:34
(UTC+00:00)

Envisat - Pass Details

Date: 18 November 2019
Orbit: 764 x 766 km, 98.1° (Epoch: 11 November)

Event Time Altitude Azimuth Distance (km) Brightness Sun altitude
Rises 19:19:55 0° 195° (SSW) 3,230 6.7 -22.3°
Reaches altitude 10° 19:22:47 10° 212° (SSW) 2,301 6.2 -22.9°
Maximum altitude 19:26:23 20° 257° (WSW) 1,721 5.6 -23.8°
Drops below altitude 10° 19:30:00 10° 303° (WNW) 2,293 5.9 -24.6°
Sets 19:32:53 0° 320° (NW) 3,215 6.5 -25.3°
